Time,TemperatureF,DewpointF,PressureIn,WindDirection,WindDirectionDegrees,WindSpeedMPH,WindSpeedGustMPH,Humidity,HourlyPrecipIn,Conditions,Clouds,dailyrainin,SoftwareType,DateUTC
2013-04-30 00:01:00,40.0,40.0,-100.00,South,180,0.0,0.0,100,0.00,,,0.00,,2013-04-30 07:01:00,
2013-04-30 00:21:00,40.0,40.0,-100.00,South,180,0.0,0.0,100,0.00,,,0.00,,2013-04-30 07:21:00,
2013-04-30 00:31:00,40.0,40.0,-100.00,South,180,0.0,0.0,100,0.00,,,0.00,,2013-04-30 07:31:00,
2013-04-30 00:52:00,40.0,40.0,-100.00,South,180,0.0,0.0,100,0.00,,,0.00,,2013-04-30 07:52:00,
2013-04-30 01:02:00,40.0,40.0,-100.00,South,180,0.0,0.0,100,0.00,,,0.00,,2013-04-30 08:02:00,
2013-04-30 01:21:00,40.0,40.0,-100.00,South,180,0.0,0.0,100,0.00,,,0.00,,2013-04-30 08:21:00,
2013-04-30 01:31:00,40.0,40.0,-100.00,South,180,0.0,0.0,100,0.00,,,0.00,,2013-04-30 08:31:00,
2013-04-30 01:52:00,39.0,39.0,-100.00,South,180,0.0,0.0,100,0.00,,,0.00,,2013-04-30 08:52:00,
2013-04-30 02:01:00,39.0,39.0,-100.00,South,180,0.0,0.0,100,0.00,,,0.00,,2013-04-30 09:01:00,
2013-04-30 02:11:00,39.0,39.0,-100.00,South,180,0.0,0.0,100,0.00,,,0.00,,2013-04-30 09:11:00,
2013-04-30 02:21:00,38.0,38.0,-100.00,South,180,0.0,0.0,100,0.00,,,0.00,,2013-04-30 09:21:00,
2013-04-30 02:32:00,37.0,37.0,-100.00,South,180,0.0,0.0,100,0.00,,,0.00,,2013-04-30 09:32:00,
2013-04-30 02:42:00,37.0,37.0,-100.00,South,180,0.0,0.0,100,0.00,,,0.00,,2013-04-30 09:42:00,
2013-04-30 02:52:00,36.0,36.0,-100.00,South,180,0.0,0.0,100,0.00,,,0.00,,2013-04-30 09:52:00,
2013-04-30 03:02:00,37.0,37.0,-100.00,South,180,0.0,0.0,100,0.00,,,0.00,,2013-04-30 10:02:00,
2013-04-30 03:11:00,37.0,37.0,-100.00,South,180,0.0,0.0,100,0.00,,,0.00,,2013-04-30 10:11:00,
2013-04-30 03:22:00,36.0,36.0,-100.00,South,180,0.0,0.0,100,0.00,,,0.00,,2013-04-30 10:22:00,
2013-04-30 03:32:00,36.0,36.0,-100.00,South,180,0.0,0.0,100,0.00,,,0.00,,2013-04-30 10:32:00,
2013-04-30 03:41:00,36.0,36.0,-100.00,South,180,0.0,0.0,100,0.00,,,0.00,,2013-04-30 10:41:00,
2013-04-30 03:52:00,35.0,35.0,-100.00,South,180,0.0,0.0,100,0.00,,,0.00,,2013-04-30 10:52:00,
2013-04-30 04:01:00,35.0,35.0,-100.00,South,180,0.0,0.0,100,0.00,,,0.00,,2013-04-30 11:01:00,
2013-04-30 04:11:00,35.0,35.0,-100.00,South,180,0.0,0.0,100,0.00,,,0.00,,2013-04-30 11:11:00,
2013-04-30 04:21:00,34.0,34.0,-100.00,South,180,0.0,0.0,100,0.00,,,0.00,,2013-04-30 11:21:00,
2013-04-30 04:31:00,35.0,35.0,-100.00,South,180,0.0,0.0,100,0.00,,,0.00,,2013-04-30 11:31:00,
2013-04-30 04:42:00,35.0,35.0,-100.00,South,180,0.0,0.0,100,0.00,,,0.00,,2013-04-30 11:42:00,
2013-04-30 04:51:00,35.0,35.0,-100.00,South,180,0.0,0.0,100,0.00,,,0.00,,2013-04-30 11:51:00,
2013-04-30 05:01:00,34.0,34.0,-100.00,South,180,0.0,0.0,100,0.00,,,0.00,,2013-04-30 12:01:00,
2013-04-30 05:11:00,34.0,34.0,-100.00,South,180,0.0,0.0,100,0.00,,,0.00,,2013-04-30 12:11:00,
2013-04-30 05:21:00,34.0,34.0,-100.00,South,180,0.0,0.0,100,0.00,,,0.00,,2013-04-30 12:21:00,
2013-04-30 05:31:00,35.0,35.0,-100.00,South,180,0.0,0.0,100,0.00,,,0.00,,2013-04-30 12:31:00,
2013-04-30 05:41:00,35.0,35.0,-100.00,South,180,0.0,0.0,100,0.00,,,0.00,,2013-04-30 12:41:00,
2013-04-30 05:51:00,35.0,35.0,-100.00,South,180,0.0,0.0,100,0.00,,,0.00,,2013-04-30 12:51:00,
2013-04-30 06:01:00,36.0,36.0,-100.00,South,180,0.0,0.0,100,0.00,,,0.00,,2013-04-30 13:01:00,
2013-04-30 06:11:00,36.0,36.0,-100.00,South,180,0.0,0.0,100,0.00,,,0.00,,2013-04-30 13:11:00,
2013-04-30 06:21:00,33.0,33.0,-100.00,South,180,0.0,0.0,100,0.00,,,0.00,,2013-04-30 13:21:00,
2013-04-30 06:31:00,34.0,34.0,-100.00,South,180,0.0,0.0,100,0.00,,,0.00,,2013-04-30 13:31:00,
2013-04-30 06:41:00,34.0,34.0,-100.00,South,180,0.0,0.0,100,0.00,,,0.00,,2013-04-30 13:41:00,
2013-04-30 06:52:00,34.0,34.0,-100.00,South,180,0.0,0.0,100,0.00,,,0.00,,2013-04-30 13:52:00,
2013-04-30 07:01:00,33.0,33.0,-100.00,South,180,0.0,0.0,100,0.00,,,0.00,,2013-04-30 14:01:00,
2013-04-30 07:11:00,37.0,37.0,-100.00,South,180,0.0,0.0,100,0.00,,,0.00,,2013-04-30 14:11:00,
2013-04-30 07:21:00,37.0,37.0,-100.00,South,180,0.0,0.0,100,0.00,,,0.00,,2013-04-30 14:21:00,
2013-04-30 07:31:00,41.0,41.0,-100.00,South,180,0.0,0.0,100,0.00,,,0.00,,2013-04-30 14:31:00,
2013-04-30 08:01:00,47.0,47.0,-100.00,South,180,0.0,0.0,100,0.00,,,0.00,,2013-04-30 15:01:00,
2013-04-30 08:32:00,50.0,50.0,-100.00,South,180,0.0,0.0,100,0.00,,,0.00,,2013-04-30 15:32:00,
2013-04-30 09:02:00,48.0,48.0,-100.00,South,180,0.0,0.0,100,0.00,,,0.00,,2013-04-30 16:02:00,
2013-04-30 09:22:00,48.0,48.0,-100.00,South,180,0.0,0.0,100,0.00,,,0.00,,2013-04-30 16:22:00,
2013-04-30 09:32:00,49.0,49.0,-100.00,South,180,0.0,0.0,100,0.00,,,0.00,,2013-04-30 16:32:00,
2013-04-30 09:52:00,45.0,45.0,-100.00,South,180,0.0,0.0,100,0.00,,,0.00,,2013-04-30 16:52:00,
2013-04-30 10:02:00,51.0,51.0,-100.00,South,180,0.0,0.0,100,0.00,,,0.00,,2013-04-30 17:02:00,
2013-04-30 10:11:00,52.0,52.0,-100.00,South,180,0.0,0.0,100,0.00,,,0.00,,2013-04-30 17:11:00,
2013-04-30 10:22:00,52.0,52.0,-100.00,South,180,0.0,0.0,100,0.00,,,0.00,,2013-04-30 17:22:00,
2013-04-30 10:41:00,50.0,50.0,-100.00,South,180,0.0,0.0,100,0.00,,,0.00,,2013-04-30 17:41:00,
2013-04-30 11:01:00,52.0,52.0,-100.00,South,180,0.0,0.0,100,0.00,,,0.00,,2013-04-30 18:01:00,
2013-04-30 11:11:00,55.0,55.0,-100.00,South,180,0.0,0.0,100,0.00,,,0.00,,2013-04-30 18:11:00,
2013-04-30 11:32:00,50.0,50.0,-100.00,South,180,0.0,0.0,100,0.00,,,0.00,,2013-04-30 18:32:00,
2013-04-30 11:41:00,52.0,52.0,-100.00,South,180,0.0,0.0,100,0.00,,,0.00,,2013-04-30 18:41:00,
2013-04-30 12:01:00,51.0,51.0,-100.00,South,180,0.0,0.0,100,0.00,,,0.00,,2013-04-30 19:01:00,
2013-04-30 12:11:00,59.0,59.0,-100.00,South,180,0.0,0.0,100,0.00,,,0.00,,2013-04-30 19:11:00,
2013-04-30 12:31:00,53.0,53.0,-100.00,South,180,0.0,0.0,100,0.00,,,0.00,,2013-04-30 19:31:00,
2013-04-30 12:41:00,51.0,51.0,-100.00,South,180,0.0,0.0,100,0.00,,,0.00,,2013-04-30 19:41:00,
2013-04-30 13:01:00,52.0,52.0,-100.00,South,180,0.0,0.0,100,0.00,,,0.00,,2013-04-30 20:01:00,
2013-04-30 13:32:00,52.0,52.0,-100.00,South,180,0.0,0.0,100,0.00,,,0.00,,2013-04-30 20:32:00,
2013-04-30 14:01:00,52.0,52.0,-100.00,South,180,0.0,0.0,100,0.00,,,0.00,,2013-04-30 21:01:00,
2013-04-30 14:11:00,53.0,53.0,-100.00,South,180,0.0,0.0,100,0.00,,,0.00,,2013-04-30 21:11:00,
2013-04-30 14:32:00,56.0,56.0,-100.00,South,180,0.0,0.0,100,0.00,,,0.00,,2013-04-30 21:32:00,
2013-04-30 15:12:00,52.0,52.0,-100.00,South,180,0.0,0.0,100,0.00,,,0.00,,2013-04-30 22:12:00,
2013-04-30 15:32:00,53.0,53.0,-100.00,South,180,0.0,0.0,100,0.00,,,0.00,,2013-04-30 22:32:00,
2013-04-30 15:53:00,53.0,53.0,-100.00,South,180,0.0,0.0,100,0.00,,,0.00,,2013-04-30 22:53:00,
2013-04-30 16:02:00,52.0,52.0,-100.00,South,180,0.0,0.0,100,0.00,,,0.00,,2013-04-30 23:02:00,
2013-04-30 16:11:00,54.0,54.0,-100.00,South,180,0.0,0.0,100,0.00,,,0.00,,2013-04-30 23:11:00,
2013-04-30 16:32:00,54.0,54.0,-100.00,South,180,0.0,0.0,100,0.00,,,0.00,,2013-04-30 23:32:00,
2013-04-30 16:52:00,53.0,53.0,-100.00,South,180,0.0,0.0,100,0.00,,,0.00,,2013-04-30 23:52:00,
2013-04-30 17:01:00,54.0,54.0,-100.00,South,180,0.0,0.0,100,0.00,,,0.00,,2013-05-01 00:01:00,
2013-04-30 17:21:00,54.0,54.0,-100.00,South,180,0.0,0.0,100,0.00,,,0.00,,2013-05-01 00:21:00,
2013-04-30 17:31:00,54.0,54.0,-100.00,South,180,0.0,0.0,100,0.00,,,0.00,,2013-05-01 00:31:00,
2013-04-30 17:51:00,54.0,54.0,-100.00,South,180,0.0,0.0,100,0.00,,,0.00,,2013-05-01 00:51:00,
2013-04-30 18:01:00,54.0,54.0,-100.00,South,180,0.0,0.0,100,0.00,,,0.00,,2013-05-01 01:01:00,
2013-04-30 18:21:00,53.0,53.0,-100.00,South,180,0.0,0.0,100,0.00,,,0.00,,2013-05-01 01:21:00,
2013-04-30 18:31:00,53.0,53.0,-100.00,South,180,0.0,0.0,100,0.00,,,0.00,,2013-05-01 01:31:00,
2013-04-30 18:52:00,52.0,52.0,-100.00,South,180,0.0,0.0,100,0.00,,,0.00,,2013-05-01 01:52:00,
2013-04-30 19:01:00,52.0,52.0,-100.00,South,180,0.0,0.0,100,0.00,,,0.00,,2013-05-01 02:01:00,
2013-04-30 19:11:00,52.0,52.0,-100.00,South,180,0.0,0.0,100,0.00,,,0.00,,2013-05-01 02:11:00,
2013-04-30 19:32:00,51.0,51.0,-100.00,South,180,0.0,0.0,100,0.00,,,0.00,,2013-05-01 02:32:00,
2013-04-30 19:51:00,50.0,50.0,-100.00,South,180,0.0,0.0,100,0.00,,,0.00,,2013-05-01 02:51:00,
2013-04-30 20:32:00,47.0,47.0,-100.00,South,180,0.0,0.0,100,0.00,,,0.00,,2013-05-01 03:32:00,
2013-04-30 20:53:00,45.0,45.0,-100.00,South,180,0.0,0.0,100,0.00,,,0.00,,2013-05-01 03:53:00,
2013-04-30 21:02:00,44.0,44.0,-100.00,South,180,0.0,0.0,100,0.00,,,0.00,,2013-05-01 04:02:00,
2013-04-30 21:12:00,43.0,43.0,-100.00,South,180,0.0,0.0,100,0.00,,,0.00,,2013-05-01 04:12:00,
2013-04-30 21:22:00,43.0,43.0,-100.00,South,180,0.0,0.0,100,0.00,,,0.00,,2013-05-01 04:22:00,
2013-04-30 21:32:00,42.0,42.0,-100.00,South,180,0.0,0.0,100,0.00,,,0.00,,2013-05-01 04:32:00,
2013-04-30 21:52:00,41.0,41.0,-100.00,South,180,0.0,0.0,100,0.00,,,0.00,,2013-05-01 04:52:00,
2013-04-30 22:32:00,39.0,39.0,-100.00,South,180,0.0,0.0,100,0.00,,,0.00,,2013-05-01 05:32:00,
2013-04-30 22:42:00,38.0,38.0,-100.00,South,180,0.0,0.0,100,0.00,,,0.00,,2013-05-01 05:42:00,
2013-04-30 22:52:00,38.0,38.0,-100.00,South,180,0.0,0.0,100,0.00,,,0.00,,2013-05-01 05:52:00,
2013-04-30 23:01:00,38.0,38.0,-100.00,South,180,0.0,0.0,100,0.00,,,0.00,,2013-05-01 06:01:00,
2013-04-30 23:11:00,38.0,38.0,-100.00,South,180,0.0,0.0,100,0.00,,,0.00,,2013-05-01 06:11:00,
2013-04-30 23:21:00,37.0,37.0,-100.00,South,180,0.0,0.0,100,0.00,,,0.00,,2013-05-01 06:21:00,
2013-04-30 23:32:00,36.0,36.0,-100.00,South,180,0.0,0.0,100,0.00,,,0.00,,2013-05-01 06:32:00,
2013-04-30 23:41:00,36.0,36.0,-100.00,South,180,0.0,0.0,100,0.00,,,0.00,,2013-05-01 06:41:00,
2013-04-30 23:52:00,36.0,36.0,-100.00,South,180,0.0,0.0,100,0.00,,,0.00,,2013-05-01 06:52:00,